EW5836 Weather Reports


Display with metric or nautical units.
time (UTC)temp
F
wind
direction
speed
MPH
gust
MPH
rain 1hr
in
rain 24hr
in
rain mn
in
humidity
%
barometer
mb
20260504190540 62 256 0.0 4.0 0.00 0.00 0.00 65 1017.3
20260504190034 62 259 1.0 4.0 0.00 0.00 0.00 65 1017.2
20260504185537 62 260 0.0 0.0 0.00 0.00 0.00 65 1017.1
20260504185036 62 316 0.0 8.0 0.00 0.00 0.00 61 1017.1
20260504184539 62 316 3.0 10.0 0.00 0.00 0.00 61 1017.0
20260504184039 62 311 3.0 10.0 0.00 0.00 0.00 65 1017.0
20260504183542 62 309 1.0 8.0 0.00 0.00 0.00 67 1017.0
20260504183104 62 309 1.0 4.0 0.00 0.00 0.00 68 1017.0
20260504182541 62 294 0.0 3.0 0.00 0.00 0.00 70 1017.0
20260504182055 62 286 0.0 3.0 0.00 0.00 0.00 68 1017.0
20260504181547 62 234 0.0 3.0 0.00 0.00 0.00 69 1017.0
20260504181037 62 283 0.0 1.0 0.00 0.00 0.00 69 1017.0
20260504180541 62 284 0.0 5.0 0.00 0.00 0.00 69 1016.9
20260504180034 62 251 1.0 7.0 0.00 0.00 0.00 70 1017.0
20260504175601 63 233 1.0 7.0 0.00 0.00 0.00 70 1016.9
20260504175033 63 224 2.0 4.0 0.00 0.00 0.00 70 1017.0
20260504174559 63 250 0.0 4.0 0.00 0.00 0.00 70 1016.9
20260504174044 63 245 1.0 4.0 0.00 0.00 0.00 70 1017.0
20260504173550 63 320 0.0 2.0 0.00 0.00 0.00 71 1017.0
20260504173105 63 326 0.0 0.0 0.00 0.00 0.00 72 1017.0
20260504172550 63 326 0.0 0.0 0.00 0.00 0.00 73 1017.0
20260504172108 63 326 0.0 0.0 0.00 0.00 0.00 73 1017.0
20260504171611 63 326 0.0 0.0 0.00 0.00 0.00 75 1016.9
20260504171042 63 326 0.0 0.0 0.00 0.00 0.00 74 1017.0
20260504170547 63 326 0.0 0.0 0.00 0.00 0.00 72 1017.0
20260504151041 66 91 0.0 0.0 0.00 0.00 0.00 60 1017.2
20260504150544 66 91 0.0 0.0 0.00 0.00 0.00 60 1017.3
20260504141038 66 153 0.0 1.0 0.00 0.00 0.00 57 1017.7
20260504140543 66 153 0.0 3.0 0.00 0.00 0.00 57 1017.8
20260504130545 67 293 1.0 9.0 0.00 0.00 0.00 54 1018.2
20260504110535 65 142 0.0 7.0 0.00 0.00 0.00 59 1018.9
20260504110111 65 140 0.0 7.0 0.00 0.00 0.00 59 1018.9
20260504100610 65 118 0.0 4.0 0.00 0.00 0.00 61 1018.9
20260504081603 62 121 0.0 0.0 0.00 0.00 0.00 60 1018.9
20260504081034 62 120 0.0 0.0 0.00 0.00 0.00 59 1019.0
20260504080537 62 121 0.0 0.0 0.00 0.00 0.00 60 1019.0
20260504050539 57 299 0.0 0.0 0.00 0.00 0.00 72 1017.7
20260504045530 57 299 0.0 0.0 0.00 0.00 0.00 72 1017.5
20260504045040 57 299 0.0 0.0 0.00 0.00 0.00 72 1017.6
20260504044545 57 299 0.0 0.0 0.00 0.00 0.00 70 1017.4
20260504044036 57 299 0.0 0.0 0.00 0.00 0.00 69 1017.3
20260504043539 57 299 0.0 0.0 0.00 0.00 0.00 68 1017.2
20260504043059 57 299 0.0 0.0 0.00 0.00 0.00 70 1017.3
20260504042534 57 299 0.0 0.0 0.00 0.00 0.00 67 1017.3
20260504042043 57 299 0.0 0.0 0.00 0.00 0.00 68 1017.2
20260504041549 58 299 0.0 0.0 0.00 0.00 0.00 67 1017.1
20260504041109 57 299 0.0 0.0 0.00 0.00 0.00 69 1017.2
20260504040550 57 299 0.0 0.0 0.00 0.00 0.00 69 1017.2
20260504040042 57 299 0.0 0.0 0.00 0.00 0.00 70 1017.2
20260504035547 57 299 0.0 0.0 0.00 0.00 0.00 70 1017.1
20260504035037 57 299 0.0 3.0 0.00 0.00 0.00 69 1017.1
20260504034541 57 299 1.0 3.0 0.00 0.00 0.00 68 1017.1
20260504034031 57 299 1.0 3.0 0.00 0.00 0.00 70 1017.1
20260504033557 57 299 0.0 4.0 0.00 0.00 0.00 70 1017.2
20260504033038 57 259 1.0 4.0 0.00 0.00 0.00 69 1017.4
20260504032542 57 286 0.0 0.0 0.00 0.00 0.00 69 1017.3
20260504032054 57 286 0.0 0.0 0.00 0.00 0.00 68 1017.2
20260504031539 57 286 0.0 0.0 0.00 0.00 0.00 69 1017.2
20260504031100 57 286 0.0 0.0 0.00 0.00 0.00 71 1017.2
20260504030533 57 286 0.0 0.0 0.00 0.00 0.00 72 1017.4
20260504030041 57 285 0.0 7.0 0.00 0.00 0.00 71 1017.4
20260504025545 57 257 2.0 7.0 0.00 0.00 0.00 69 1017.4
20260504025032 57 335 0.0 0.0 0.00 0.00 0.00 67 1017.3
20260504024535 57 335 0.0 0.0 0.00 0.00 0.00 70 1017.2
20260504024055 57 335 0.0 0.0 0.00 0.00 0.00 69 1017.4
20260504023532 57 335 0.0 0.0 0.00 0.00 0.00 68 1017.4
20260504023040 57 335 0.0 0.0 0.00 0.00 0.00 69 1017.3
20260504022542 57 335 0.0 0.0 0.00 0.00 0.00 70 1017.3
20260504022035 57 335 0.0 0.0 0.00 0.00 0.00 69 1017.3
20260504021541 57 335 0.0 0.0 0.00 0.00 0.00 69 1017.4
20260504021032 57 335 0.0 0.0 0.00 0.00 0.00 69 1017.4
20260504020534 58 335 0.0 0.0 0.00 0.00 0.00 69 1017.3
20260504020108 59 336 0.0 0.0 0.00 0.00 0.00 66 1017.4
20260504015550 58 336 0.0 0.0 0.00 0.00 0.00 65 1017.3
20260504015038 58 336 0.0 0.0 0.00 0.00 0.00 66 1017.3
20260504014542 58 336 0.0 0.0 0.00 0.00 0.00 68 1017.3
20260504014042 58 337 0.0 0.0 0.00 0.00 0.00 66 1017.3
20260504013547 58 341 0.0 0.0 0.00 0.00 0.00 68 1017.4
20260504013105 58 342 0.0 0.0 0.00 0.00 0.00 65 1017.4
20260504012605 59 342 0.0 0.0 0.00 0.00 0.00 63 1017.3
20260504012037 59 342 0.0 0.0 0.00 0.00 0.00 61 1017.4
20260504011543 59 342 0.0 0.0 0.00 0.00 0.00 61 1017.4
20260504011033 59 342 0.0 0.0 0.00 0.00 0.00 64 1017.4
20260504010536 58 342 0.0 0.0 0.00 0.00 0.00 64 1017.5
20260504010031 58 342 0.0 0.0 0.00 0.00 0.00 65 1017.6
20260504005535 58 342 0.0 0.0 0.00 0.00 0.00 67 1017.6
20260504005044 58 342 0.0 0.0 0.00 0.00 0.00 67 1017.5
20260504004535 59 342 0.0 0.0 0.00 0.00 0.00 65 1017.5
20260504004047 59 342 0.0 0.0 0.00 0.00 0.00 59 1017.4
20260504003552 59 342 0.0 0.0 0.00 0.00 0.00 57 1017.3
20260504003039 59 342 0.0 0.0 0.00 0.00 0.00 61 1017.3
20260504002542 59 342 0.0 0.0 0.00 0.00 0.00 61 1017.4
20260504002041 59 343 0.0 0.0 0.00 0.00 0.00 60 1017.6
20260504001601 59 343 0.0 0.0 0.00 0.00 0.00 65 1017.6
20260504001031 60 343 0.0 0.0 0.00 0.00 0.00 66 1017.6
20260504000536 60 343 0.0 0.0 0.00 0.00 0.00 62 1017.7
20260504000041 60 343 0.0 0.0 0.00 0.00 0.00 60 1017.7
20260503235544 60 343 0.0 0.0 0.00 0.00 0.00 61 1017.7
20260503235056 59 342 0.0 0.0 0.00 0.00 0.00 64 1017.7
20260503234532 60 343 0.0 0.0 0.00 0.00 0.00 66 1017.8
20260503234044 60 342 0.0 0.0 0.00 0.00 0.00 68 1017.9
20260503233548 61 343 0.0 0.0 0.00 0.00 0.00 65 1017.9
20260503233039 60 343 0.0 0.0 0.00 0.00 0.00 62 1017.9
20260503232604 60 343 0.0 0.0 0.00 0.00 0.00 62 1018.0
20260503232037 60 343 0.0 0.0 0.00 0.00 0.00 66 1018.0
20260503231543 60 343 0.0 0.0 0.00 0.00 0.00 66 1018.1
20260503231039 60 343 0.0 0.0 0.00 0.00 0.00 66 1018.3
20260503230543 60 343 0.0 0.0 0.00 0.00 0.00 66 1018.3
20260503230103 61 342 0.0 0.0 0.00 0.00 0.00 65 1018.3
20260503225533 60 343 0.0 0.0 0.00 0.00 0.00 64 1018.3
20260503225042 60 343 0.0 0.0 0.00 0.00 0.00 63 1018.3
20260503224546 60 342 0.0 0.0 0.00 0.00 0.00 64 1018.3
20260503224037 60 342 0.0 0.0 0.00 0.00 0.00 64 1018.3
20260503223542 60 343 0.0 0.0 0.00 0.00 0.00 65 1018.3
20260503223049 60 342 0.0 0.0 0.00 0.00 0.00 67 1018.4
20260503222544 60 342 0.0 0.0 0.00 0.00 0.00 67 1018.4
20260503222036 60 342 0.0 0.0 0.00 0.00 0.00 67 1018.4
20260503221539 60 343 0.0 0.0 0.00 0.00 0.00 67 1018.4
20260503221057 60 343 0.0 0.0 0.00 0.00 0.00 66 1018.4
20260503220600 60 342 0.0 0.0 0.00 0.00 0.00 67 1018.4
20260503220043 60 342 0.0 0.0 0.00 0.00 0.00 68 1018.3
20260503215537 60 342 0.0 0.0 0.00 0.00 0.00 68 1018.3
20260503215058 60 343 0.0 0.0 0.00 0.00 0.00 69 1018.3
20260503214536 60 343 0.0 0.0 0.00 0.00 0.00 66 1018.3
20260503214047 60 343 0.0 0.0 0.00 0.00 0.00 68 1018.3
20260503213610 60 343 0.0 0.0 0.00 0.00 0.00 68 1018.3
20260503213040 60 343 0.0 0.0 0.00 0.00 0.00 68 1018.3
20260503212545 60 343 0.0 0.0 0.00 0.00 0.00 69 1018.3
20260503212037 61 343 0.0 0.0 0.00 0.00 0.00 68 1018.3
20260503211542 61 343 0.0 0.0 0.00 0.00 0.00 67 1018.2
20260503211050 61 343 0.0 0.0 0.00 0.00 0.00 66 1018.3
20260503210554 61 343 0.0 0.0 0.00 0.00 0.00 67 1018.2
20260503210044 62 343 0.0 0.0 0.00 0.00 0.00 66 1018.2
20260503205549 62 343 0.0 0.0 0.00 0.00 0.00 65 1018.3
20260503205038 62 343 0.0 0.0 0.00 0.00 0.00 63 1018.2
20260503204542 62 343 0.0 0.0 0.00 0.00 0.00 63 1018.2
20260503204036 62 342 0.0 0.0 0.00 0.00 0.00 63 1018.2
20260503203542 62 343 0.0 0.0 0.00 0.00 0.00 64 1018.2
20260503203039 62 343 0.0 0.0 0.00 0.00 0.00 62 1018.3
20260503202601 63 342 0.0 0.0 0.00 0.00 0.00 59 1018.3
20260503202032 63 343 0.0 0.0 0.00 0.00 0.00 59 1018.2
20260503201537 63 342 0.0 0.0 0.00 0.00 0.00 59 1018.2
20260503201046 63 343 0.0 0.0 0.00 0.00 0.00 59 1018.2
20260503200550 64 343 0.0 0.0 0.00 0.00 0.00 58 1018.2
20260503200040 64 343 0.0 0.0 0.00 0.00 0.00 56 1018.2
20260503195545 63 342 0.0 0.0 0.00 0.00 0.00 56 1018.2
20260503195038 63 342 0.0 0.0 0.00 0.00 0.00 58 1018.1
20260503194542 64 342 0.0 0.0 0.00 0.00 0.00 58 1018.1
20260503194036 64 342 0.0 0.0 0.00 0.00 0.00 57 1018.1
20260503193557 65 343 0.0 0.0 0.00 0.00 0.00 56 1018.0
20260503193055 65 343 0.0 0.0 0.00 0.00 0.00 56 1018.0
20260503192532 65 342 0.0 0.0 0.00 0.00 0.00 55 1018.0
20260503192045 65 343 0.0 0.0 0.00 0.00 0.00 56 1017.9
20260503191549 65 343 0.0 0.0 0.00 0.00 0.00 56 1017.9
20260503191039 65 343 0.0 0.0 0.00 0.00 0.00 57 1017.9